| time (UTC) | temp F | wind direction | speed MPH | gust MPH | rain 1hr in | rain 24hr in | rain mn in | humidity % | barometer mb |
| 20260905174717 | 91 | 216 | 2.0 | 2.0 | 0.00 | 0.00 | 0.00 | 68 | 1014.8 |
| 20260905174212 | 91 | 251 | 6.0 | 8.0 | 0.00 | 0.00 | 0.00 | 70 | 1015.2 |
| 20260905173709 | 92 | 252 | 6.0 | 7.0 | 0.00 | 0.00 | 0.00 | 68 | 1015.2 |
| 20260905173204 | 91 | 238 | 3.0 | 5.0 | 0.00 | 0.00 | 0.00 | 69 | 1015.2 |
| 20260905172703 | 91 | 256 | 4.0 | 6.0 | 0.00 | 0.00 | 0.00 | 70 | 1015.2 |
| 20260905172157 | 91 | 246 | 5.0 | 6.0 | 0.00 | 0.00 | 0.00 | 69 | 1015.5 |
| 20260905171653 | 91 | 271 | 3.0 | 5.0 | 0.00 | 0.00 | 0.00 | 70 | 1015.5 |
| 20260905171149 | 91 | 270 | 6.0 | 8.0 | 0.00 | 0.00 | 0.00 | 72 | 1015.5 |
| 20260905170647 | 91 | 248 | 5.0 | 6.0 | 0.00 | 0.00 | 0.00 | 72 | 1015.8 |
| 20260905170141 | 91 | 248 | 6.0 | 7.0 | 0.00 | 0.00 | 0.00 | 73 | 1015.8 |
| 20260905165641 | 91 | 248 | 3.0 | 3.0 | 0.00 | 0.00 | 0.00 | 72 | 1015.8 |
| 20260905165136 | 91 | 267 | 2.0 | 2.0 | 0.00 | 0.00 | 0.00 | 71 | 1015.8 |
| 20260905164631 | 91 | 342 | 4.0 | 5.0 | 0.00 | 0.00 | 0.00 | 72 | 1016.2 |
| 20260905164130 | 90 | 223 | 6.0 | 8.0 | 0.00 | 0.00 | 0.00 | 73 | 1016.2 |
| 20260905163627 | 91 | 236 | 6.0 | 7.0 | 0.00 | 0.00 | 0.00 | 74 | 1016.2 |
| 20260905163123 | 90 | 231 | 4.0 | 5.0 | 0.00 | 0.00 | 0.00 | 75 | 1016.2 |
| 20260905162619 | 90 | 245 | 3.0 | 3.0 | 0.00 | 0.00 | 0.00 | 75 | 1016.5 |
| 20260905162118 | 90 | 239 | 5.0 | 6.0 | 0.00 | 0.00 | 0.00 | 78 | 1016.5 |
| 20260905161618 | 90 | 298 | 4.0 | 5.0 | 0.00 | 0.00 | 0.00 | 77 | 1016.5 |
| 20260905161115 | 89 | 222 | 6.0 | 6.0 | 0.00 | 0.00 | 0.00 | 80 | 1016.5 |
| 20260905160615 | 89 | 281 | 4.0 | 5.0 | 0.00 | 0.00 | 0.00 | 79 | 1016.5 |
| 20260905160109 | 87 | 16 | 1.0 | 1.0 | 0.00 | 0.00 | 0.00 | 83 | 1016.5 |
| 20260905155604 | 88 | 68 | 2.0 | 2.0 | 0.00 | 0.00 | 0.00 | 87 | 1016.5 |
| 20260905155103 | 87 | 68 | 0.0 | 0.0 | 0.00 | 0.00 | 0.00 | 86 | 1016.5 |
| 20260905154557 | 86 | 68 | 1.0 | 1.0 | 0.00 | 0.00 | 0.00 | 88 | 1016.9 |
| 20260905154053 | 86 | 67 | 3.0 | 3.0 | 0.00 | 0.00 | 0.00 | 88 | 1016.9 |
| 20260905153549 | 86 | 68 | 1.0 | 1.0 | 0.00 | 0.00 | 0.00 | 89 | 1016.9 |
| 20260905153048 | 86 | 68 | 1.0 | 1.0 | 0.00 | 0.00 | 0.00 | 89 | 1016.9 |
| 20260905152543 | 86 | 68 | 2.0 | 2.0 | 0.00 | 0.00 | 0.00 | 90 | 1016.9 |
| 20260905152038 | 86 | 68 | 1.0 | 1.0 | 0.00 | 0.00 | 0.00 | 89 | 1017.2 |
| 20260905151533 | 87 | 216 | 0.0 | 1.0 | 0.00 | 0.00 | 0.00 | 88 | 1016.9 |
| 20260905151029 | 86 | 216 | 1.0 | 1.0 | 0.00 | 0.00 | 0.00 | 87 | 1017.2 |
| 20260905150524 | 85 | 216 | 0.0 | 1.0 | 0.00 | 0.00 | 0.00 | 89 | 1016.9 |
| 20260905150021 | 85 | 239 | 1.0 | 1.0 | 0.00 | 0.00 | 0.00 | 90 | 1017.2 |
| 20260905145515 | 85 | 133 | 1.0 | 1.0 | 0.00 | 0.00 | 0.00 | 91 | 1017.2 |
| 20260905145015 | 84 | 222 | 0.0 | 0.0 | 0.00 | 0.00 | 0.00 | 91 | 1016.9 |
| 20260905144510 | 84 | 195 | 0.0 | 0.0 | 0.00 | 0.00 | 0.00 | 92 | 1017.2 |
| 20260905144009 | 83 | 236 | 2.0 | 2.0 | 0.00 | 0.00 | 0.00 | 93 | 1016.9 |
| 20260905143508 | 82 | 187 | 1.0 | 1.0 | 0.00 | 0.00 | 0.00 | 94 | 1016.9 |
| 20260905143003 | 82 | 264 | 2.0 | 2.0 | 0.00 | 0.00 | 0.00 | 95 | 1016.9 |
| 20260905142502 | 82 | 173 | 2.0 | 3.0 | 0.00 | 0.00 | 0.00 | 95 | 1016.9 |
| 20260905141957 | 81 | 200 | 1.0 | 1.0 | 0.00 | 0.00 | 0.00 | 96 | 1016.9 |
| 20260905141452 | 81 | 248 | 3.0 | 3.0 | 0.00 | 0.00 | 0.00 | 97 | 1016.9 |
| 20260905140948 | 81 | 203 | 3.0 | 3.0 | 0.00 | 0.00 | 0.00 | 97 | 1016.9 |
| 20260905140443 | 81 | 231 | 2.0 | 2.0 | 0.00 | 0.00 | 0.00 | 98 | 1016.9 |
| 20260905135942 | 80 | 250 | 2.0 | 2.0 | 0.00 | 0.00 | 0.00 | 98 | 1016.9 |
| 20260905135438 | 80 | 222 | 1.0 | 1.0 | 0.00 | 0.00 | 0.00 | 98 | 1016.9 |
| 20260905134933 | 80 | 241 | 2.0 | 2.0 | 0.00 | 0.00 | 0.00 | 98 | 1016.9 |
| 20260905134432 | 80 | 236 | 0.0 | 0.0 | 0.00 | 0.00 | 0.00 | 99 | 1016.9 |
| 20260905133931 | 80 | 229 | 2.0 | 2.0 | 0.00 | 0.00 | 0.00 | 99 | 1016.2 |
| 20260905133426 | 80 | 217 | 1.0 | 1.0 | 0.00 | 0.00 | 0.00 | 99 | 1016.5 |
| 20260905132926 | 80 | 213 | 2.0 | 2.0 | 0.00 | 0.00 | 0.00 | 99 | 1016.5 |
| 20260905132421 | 80 | 208 | 1.0 | 1.0 | 0.00 | 0.00 | 0.00 | 99 | 1016.9 |
| 20260905131916 | 80 | 212 | 1.0 | 2.0 | 0.00 | 0.00 | 0.00 | 99 | 1016.9 |
| 20260905131412 | 80 | 217 | 3.0 | 3.0 | 0.00 | 0.00 | 0.00 | 99 | 1016.9 |
| 20260905130907 | 79 | 211 | 2.0 | 3.0 | 0.00 | 0.00 | 0.00 | 99 | 1016.5 |
| 20260905130406 | 79 | 201 | 1.0 | 2.0 | 0.00 | 0.00 | 0.00 | 99 | 1016.5 |
| 20260905125901 | 79 | 195 | 1.0 | 1.0 | 0.00 | 0.00 | 0.00 | 99 | 1016.5 |
| 20260905125355 | 79 | 202 | 1.0 | 1.0 | 0.00 | 0.00 | 0.00 | 99 | 1016.5 |
| 20260905124851 | 79 | 200 | 2.0 | 2.0 | 0.00 | 0.00 | 0.00 | 99 | 1016.5 |
| 20260905124348 | 78 | 182 | 1.0 | 1.0 | 0.00 | 0.00 | 0.00 | 99 | 1016.5 |
| 20260905123848 | 78 | 184 | 0.0 | 0.0 | 0.00 | 0.00 | 0.00 | 99 | 1016.2 |
| 20260905123345 | 78 | 180 | 2.0 | 2.0 | 0.00 | 0.00 | 0.00 | 99 | 1016.5 |
| 20260905122844 | 78 | 189 | 0.0 | 0.0 | 0.00 | 0.00 | 0.00 | 99 | 1016.5 |
| 20260905122343 | 78 | 183 | 1.0 | 2.0 | 0.00 | 0.00 | 0.00 | 99 | 1016.5 |
| 20260905121839 | 78 | 182 | 1.0 | 1.0 | 0.00 | 0.00 | 0.00 | 99 | 1016.5 |
| 20260905121336 | 77 | 162 | 0.0 | 0.0 | 0.00 | 0.00 | 0.00 | 99 | 1016.5 |
| 20260905120834 | 77 | 162 | 0.0 | 0.0 | 0.00 | 0.00 | 0.00 | 99 | 1016.5 |
| 20260905120328 | 77 | 161 | 0.0 | 0.0 | 0.00 | 0.00 | 0.00 | 99 | 1016.5 |
| 20260905115824 | 77 | 184 | 0.0 | 0.0 | 0.00 | 0.00 | 0.00 | 99 | 1016.2 |
| 20260905115318 | 77 | 185 | 0.0 | 0.0 | 0.00 | 0.00 | 0.00 | 99 | 1016.2 |
| 20260905114818 | 77 | 184 | 0.0 | 0.0 | 0.00 | 0.00 | 0.00 | 99 | 1016.2 |
| 20260905114317 | 77 | 184 | 0.0 | 0.0 | 0.00 | 0.00 | 0.00 | 99 | 1016.2 |
| 20260905113816 | 77 | 184 | 0.0 | 0.0 | 0.00 | 0.00 | 0.00 | 99 | 1016.2 |
| 20260905113312 | 76 | 160 | 0.0 | 0.0 | 0.00 | 0.00 | 0.00 | 99 | 1016.2 |
| 20260905112807 | 76 | 159 | 0.0 | 0.0 | 0.00 | 0.00 | 0.00 | 99 | 1015.8 |
| 20260905112305 | 76 | 159 | 0.0 | 0.0 | 0.00 | 0.00 | 0.00 | 99 | 1016.2 |
| 20260905111756 | 76 | 159 | 0.0 | 0.0 | 0.00 | 0.00 | 0.00 | 99 | 1016.2 |
| 20260905111251 | 76 | 159 | 0.0 | 0.0 | 0.00 | 0.00 | 0.00 | 99 | 1016.2 |
| 20260905110750 | 76 | 159 | 0.0 | 0.0 | 0.00 | 0.00 | 0.00 | 99 | 1016.2 |
| 20260905110244 | 76 | 158 | 0.0 | 0.0 | 0.00 | 0.00 | 0.00 | 99 | 1015.8 |
| 20260905105740 | 76 | 164 | 0.0 | 0.0 | 0.00 | 0.00 | 0.00 | 99 | 1015.5 |
| 20260905105239 | 76 | 164 | 0.0 | 0.0 | 0.00 | 0.00 | 0.00 | 99 | 1015.8 |
| 20260905104734 | 76 | 164 | 0.0 | 0.0 | 0.00 | 0.00 | 0.00 | 99 | 1015.5 |
| 20260905104231 | 76 | 170 | 0.0 | 0.0 | 0.00 | 0.00 | 0.00 | 99 | 1015.5 |
| 20260905103725 | 76 | 187 | 1.0 | 1.0 | 0.00 | 0.00 | 0.00 | 99 | 1015.5 |
| 20260905103221 | 76 | 178 | 1.0 | 1.0 | 0.00 | 0.00 | 0.00 | 99 | 1015.5 |
| 20260905102716 | 76 | 183 | 0.0 | 1.0 | 0.00 | 0.00 | 0.00 | 99 | 1015.5 |
| 20260905102213 | 76 | 179 | 1.0 | 2.0 | 0.00 | 0.00 | 0.00 | 99 | 1015.2 |
| 20260905101712 | 76 | 183 | 2.0 | 2.0 | 0.00 | 0.00 | 0.00 | 99 | 1015.5 |
| 20260905101210 | 76 | 194 | 0.0 | 1.0 | 0.00 | 0.00 | 0.00 | 99 | 1015.5 |
| 20260905100706 | 76 | 194 | 1.0 | 1.0 | 0.00 | 0.00 | 0.00 | 99 | 1015.5 |
| 20260905100201 | 76 | 181 | 1.0 | 1.0 | 0.00 | 0.00 | 0.00 | 99 | 1015.2 |
| 20260905095701 | 76 | 198 | 0.0 | 0.0 | 0.00 | 0.00 | 0.00 | 99 | 1015.2 |
| 20260905095155 | 76 | 179 | 1.0 | 1.0 | 0.00 | 0.00 | 0.00 | 99 | 1015.2 |
| 20260905094650 | 76 | 196 | 2.0 | 2.0 | 0.00 | 0.00 | 0.00 | 99 | 1015.5 |
| 20260905094149 | 76 | 186 | 0.0 | 0.0 | 0.00 | 0.00 | 0.00 | 99 | 1015.5 |
| 20260905093644 | 76 | 195 | 0.0 | 0.0 | 0.00 | 0.00 | 0.00 | 99 | 1015.5 |
| 20260905093140 | 76 | 205 | 0.0 | 0.0 | 0.00 | 0.00 | 0.00 | 99 | 1015.5 |
| 20260905092640 | 76 | 158 | 0.0 | 0.0 | 0.00 | 0.00 | 0.00 | 99 | 1015.5 |
| 20260905092137 | 76 | 152 | 0.0 | 0.0 | 0.00 | 0.00 | 0.00 | 99 | 1015.5 |
| 20260905091635 | 76 | 111 | 0.0 | 0.0 | 0.00 | 0.00 | 0.00 | 99 | 1015.5 |
| 20260905091130 | 76 | 120 | 0.0 | 0.0 | 0.00 | 0.00 | 0.00 | 99 | 1015.8 |
| 20260905090625 | 76 | 142 | 0.0 | 0.0 | 0.00 | 0.00 | 0.00 | 99 | 1015.5 |
| 20260905090120 | 76 | 142 | 0.0 | 0.0 | 0.00 | 0.00 | 0.00 | 99 | 1015.8 |
| 20260905085619 | 76 | 135 | 1.0 | 1.0 | 0.00 | 0.00 | 0.00 | 99 | 1015.5 |
| 20260905085114 | 76 | 135 | 0.0 | 0.0 | 0.00 | 0.00 | 0.00 | 99 | 1015.8 |
| 20260905084613 | 76 | 137 | 0.0 | 0.0 | 0.00 | 0.00 | 0.00 | 99 | 1015.8 |
| 20260905084103 | 76 | 87 | 0.0 | 0.0 | 0.00 | 0.00 | 0.00 | 99 | 1015.5 |
| 20260905083557 | 76 | 169 | 0.0 | 0.0 | 0.00 | 0.00 | 0.00 | 99 | 1015.5 |
| 20260905083054 | 76 | 177 | 0.0 | 0.0 | 0.00 | 0.00 | 0.00 | 99 | 1015.8 |
| 20260905082549 | 76 | 178 | 0.0 | 0.0 | 0.00 | 0.00 | 0.00 | 99 | 1015.5 |
| 20260905082045 | 76 | 178 | 0.0 | 0.0 | 0.00 | 0.00 | 0.00 | 99 | 1015.5 |
| 20260905081543 | 76 | 178 | 0.0 | 0.0 | 0.00 | 0.00 | 0.00 | 99 | 1015.5 |
| 20260905081038 | 76 | 178 | 0.0 | 0.0 | 0.00 | 0.00 | 0.00 | 99 | 1015.5 |
| 20260905080538 | 76 | 178 | 0.0 | 0.0 | 0.00 | 0.00 | 0.00 | 99 | 1015.5 |
| 20260905080034 | 76 | 178 | 0.0 | 0.0 | 0.00 | 0.00 | 0.00 | 99 | 1015.5 |
| 20260905075527 | 76 | 178 | 0.0 | 0.0 | 0.00 | 0.00 | 0.00 | 99 | 1015.5 |
| 20260905075026 | 76 | 189 | 0.0 | 0.0 | 0.00 | 0.00 | 0.00 | 99 | 1015.2 |
| 20260905074521 | 76 | 189 | 0.0 | 0.0 | 0.00 | 0.00 | 0.00 | 99 | 1015.5 |
| 20260905074017 | 76 | 190 | 0.0 | 0.0 | 0.00 | 0.00 | 0.00 | 99 | 1015.2 |
| 20260905073506 | 77 | 189 | 0.0 | 0.0 | 0.00 | 0.00 | 0.00 | 99 | 1015.2 |
| 20260905073002 | 77 | 189 | 0.0 | 0.0 | 0.00 | 0.00 | 0.00 | 99 | 1015.5 |
| 20260905072502 | 77 | 189 | 0.0 | 0.0 | 0.00 | 0.00 | 0.00 | 99 | 1015.2 |
| 20260905071957 | 77 | 189 | 0.0 | 0.0 | 0.00 | 0.00 | 0.00 | 99 | 1015.5 |
| 20260905071454 | 77 | 195 | 0.0 | 0.0 | 0.00 | 0.00 | 0.00 | 99 | 1015.5 |
| 20260905070954 | 77 | 193 | 0.0 | 0.0 | 0.00 | 0.00 | 0.00 | 99 | 1015.5 |
| 20260905070449 | 77 | 150 | 0.0 | 0.0 | 0.00 | 0.00 | 0.00 | 99 | 1015.8 |
| 20260905065944 | 77 | 150 | 0.0 | 0.0 | 0.00 | 0.00 | 0.00 | 99 | 1015.8 |
| 20260905065442 | 77 | 150 | 0.0 | 0.0 | 0.00 | 0.00 | 0.00 | 99 | 1015.5 |
| 20260905064937 | 77 | 150 | 0.0 | 0.0 | 0.00 | 0.00 | 0.00 | 99 | 1015.8 |
| 20260905064432 | 77 | 148 | 0.0 | 0.0 | 0.00 | 0.00 | 0.00 | 99 | 1015.8 |
| 20260905063927 | 77 | 148 | 0.0 | 0.0 | 0.00 | 0.00 | 0.00 | 99 | 1015.8 |
| 20260905063421 | 77 | 148 | 0.0 | 0.0 | 0.00 | 0.00 | 0.00 | 99 | 1015.8 |
| 20260905062918 | 77 | 148 | 0.0 | 0.0 | 0.00 | 0.00 | 0.00 | 99 | 1016.2 |
| 20260905062412 | 77 | 148 | 0.0 | 0.0 | 0.00 | 0.00 | 0.00 | 99 | 1016.2 |
| 20260905061907 | 77 | 111 | 0.0 | 0.0 | 0.00 | 0.00 | 0.00 | 99 | 1015.8 |
| 20260905061407 | 77 | 200 | 0.0 | 0.0 | 0.00 | 0.00 | 0.00 | 99 | 1016.2 |
| 20260905060906 | 77 | 206 | 0.0 | 0.0 | 0.00 | 0.00 | 0.00 | 99 | 1016.2 |
| 20260905060403 | 76 | 206 | 0.0 | 0.0 | 0.00 | 0.00 | 0.00 | 99 | 1016.2 |
| 20260905055902 | 77 | 206 | 0.0 | 0.0 | 0.00 | 0.00 | 0.00 | 99 | 1016.2 |
| 20260905055357 | 77 | 206 | 0.0 | 0.0 | 0.00 | 0.00 | 0.00 | 99 | 1016.2 |
| 20260905054856 | 77 | 206 | 0.0 | 0.0 | 0.00 | 0.00 | 0.00 | 99 | 1016.5 |
| 20260905054353 | 77 | 206 | 0.0 | 0.0 | 0.00 | 0.00 | 0.00 | 99 | 1016.5 |
| 20260905053852 | 77 | 206 | 0.0 | 0.0 | 0.00 | 0.00 | 0.00 | 99 | 1016.2 |
| 20260905053347 | 77 | 206 | 0.0 | 0.0 | 0.00 | 0.00 | 0.00 | 99 | 1016.2 |
| 20260905052843 | 77 | 206 | 0.0 | 0.0 | 0.00 | 0.00 | 0.00 | 99 | 1016.2 |
| 20260905052337 | 77 | 206 | 0.0 | 0.0 | 0.00 | 0.00 | 0.00 | 99 | 1016.5 |
| 20260905051836 | 77 | 206 | 0.0 | 0.0 | 0.00 | 0.00 | 0.00 | 99 | 1016.5 |
| 20260905051333 | 77 | 206 | 0.0 | 0.0 | 0.00 | 0.00 | 0.00 | 99 | 1016.5 |
| 20260905050830 | 77 | 206 | 1.0 | 1.0 | 0.00 | 0.00 | 0.00 | 99 | 1016.5 |
| 20260905050326 | 77 | 193 | 0.0 | 0.0 | 0.00 | 0.00 | 0.00 | 99 | 1016.5 |
| 20260905045825 | 77 | 174 | 0.0 | 0.0 | 0.00 | 0.00 | 0.00 | 99 | 1016.9 |
| 20260905045320 | 77 | 158 | 0.0 | 1.0 | 0.00 | 0.00 | 0.00 | 99 | 1016.9 |
| 20260905044816 | 77 | 158 | 0.0 | 0.0 | 0.00 | 0.00 | 0.00 | 99 | 1016.9 |
| 20260905044311 | 77 | 158 | 0.0 | 0.0 | 0.00 | 0.00 | 0.00 | 99 | 1016.9 |
| 20260905043809 | 77 | 158 | 0.0 | 0.0 | 0.00 | 0.00 | 0.00 | 99 | 1016.5 |
| 20260905043305 | 77 | 159 | 0.0 | 1.0 | 0.00 | 0.00 | 0.00 | 99 | 1016.9 |
| 20260905042804 | 77 | 165 | 0.0 | 0.0 | 0.00 | 0.00 | 0.00 | 99 | 1016.9 |
| 20260905042259 | 77 | 165 | 0.0 | 0.0 | 0.00 | 0.00 | 0.00 | 99 | 1017.2 |
| 20260905041754 | 77 | 165 | 0.0 | 0.0 | 0.00 | 0.00 | 0.00 | 99 | 1017.2 |
| 20260905041250 | 77 | 163 | 0.0 | 0.0 | 0.00 | 0.00 | 0.00 | 99 | 1016.9 |
| 20260905040745 | 77 | 163 | 0.0 | 0.0 | 0.00 | 0.00 | 0.00 | 99 | 1016.9 |
| 20260905040243 | 77 | 163 | 0.0 | 0.0 | 0.00 | 0.00 | 0.00 | 99 | 1017.2 |
| 20260905035738 | 77 | 242 | 0.0 | 0.0 | 0.00 | 0.04 | 0.04 | 99 | 1017.5 |
| 20260905035234 | 77 | 242 | 0.0 | 0.0 | 0.00 | 0.04 | 0.04 | 99 | 1017.2 |
| 20260905034731 | 77 | 219 | 0.0 | 0.0 | 0.00 | 0.04 | 0.04 | 99 | 1017.2 |
| 20260905034230 | 77 | 219 | 0.0 | 0.0 | 0.00 | 0.04 | 0.04 | 99 | 1016.9 |
| 20260905033730 | 77 | 209 | 0.0 | 0.0 | 0.00 | 0.04 | 0.04 | 99 | 1016.9 |
| 20260905033225 | 77 | 181 | 0.0 | 0.0 | 0.00 | 0.04 | 0.04 | 99 | 1016.9 |
| 20260905032724 | 77 | 181 | 0.0 | 0.0 | 0.00 | 0.04 | 0.04 | 99 | 1016.9 |
| 20260905032220 | 77 | 163 | 1.0 | 1.0 | 0.00 | 0.04 | 0.04 | 99 | 1017.2 |
| 20260905031715 | 77 | 181 | 1.0 | 1.0 | 0.00 | 0.04 | 0.04 | 99 | 1017.2 |
| 20260905031210 | 77 | 166 | 2.0 | 2.0 | 0.00 | 0.04 | 0.04 | 99 | 1017.2 |
| 20260905030705 | 77 | 160 | 2.0 | 2.0 | 0.00 | 0.04 | 0.04 | 99 | 1017.5 |
| 20260905030201 | 77 | 180 | 2.0 | 2.0 | 0.00 | 0.04 | 0.04 | 99 | 1017.2 |
| 20260905025655 | 77 | 164 | 0.0 | 0.0 | 0.00 | 0.04 | 0.04 | 99 | 1017.5 |
| 20260905025151 | 77 | 161 | 0.0 | 0.0 | 0.00 | 0.04 | 0.04 | 99 | 1017.2 |
| 20260905024647 | 77 | 138 | 0.0 | 0.0 | 0.00 | 0.04 | 0.04 | 99 | 1017.5 |
| 20260905024142 | 77 | 179 | 0.0 | 0.0 | 0.00 | 0.04 | 0.04 | 99 | 1017.5 |
| 20260905023637 | 77 | 147 | 1.0 | 1.0 | 0.00 | 0.04 | 0.04 | 99 | 1017.9 |
| 20260905023137 | 77 | 150 | 0.0 | 0.0 | 0.00 | 0.04 | 0.04 | 99 | 1017.5 |
| 20260905022636 | 77 | 114 | 2.0 | 2.0 | 0.00 | 0.04 | 0.04 | 99 | 1017.5 |
| 20260905022131 | 77 | 55 | 3.0 | 3.0 | 0.00 | 0.04 | 0.04 | 99 | 1017.5 |
| 20260905021626 | 77 | 60 | 3.0 | 3.0 | 0.00 | 0.04 | 0.04 | 99 | 1017.5 |
| 20260905021121 | 77 | 130 | 1.0 | 1.0 | 0.00 | 0.04 | 0.04 | 99 | 1017.5 |
| 20260905020621 | 77 | 147 | 0.0 | 0.0 | 0.00 | 0.04 | 0.04 | 99 | 1017.5 |
| 20260905020117 | 77 | 166 | 0.0 | 0.0 | 0.00 | 0.04 | 0.04 | 99 | 1017.9 |
| 20260905015615 | 77 | 107 | 1.0 | 2.0 | 0.00 | 0.04 | 0.04 | 99 | 1017.5 |
| 20260905015109 | 77 | 76 | 0.0 | 0.0 | 0.00 | 0.04 | 0.04 | 99 | 1017.2 |
| 20260905014603 | 77 | 65 | 1.0 | 2.0 | 0.00 | 0.04 | 0.04 | 99 | 1017.5 |
| 20260905014059 | 77 | 75 | 1.0 | 1.0 | 0.00 | 0.04 | 0.04 | 99 | 1017.5 |
| 20260905013555 | 77 | 68 | 3.0 | 3.0 | 0.00 | 0.04 | 0.04 | 99 | 1017.2 |
| 20260905013051 | 77 | 43 | 3.0 | 3.0 | 0.00 | 0.04 | 0.04 | 99 | 1017.5 |
| 20260905012550 | 77 | 52 | 2.0 | 2.0 | 0.00 | 0.04 | 0.04 | 99 | 1017.5 |
| 20260905012048 | 77 | 169 | 1.0 | 1.0 | 0.00 | 0.04 | 0.04 | 99 | 1017.5 |
| 20260905011543 | 77 | 123 | 0.0 | 0.0 | 0.00 | 0.04 | 0.04 | 99 | 1017.5 |
| 20260905011039 | 77 | 61 | 3.0 | 3.0 | 0.00 | 0.04 | 0.04 | 99 | 1016.9 |
| 20260905010533 | 77 | 80 | 0.0 | 0.0 | 0.00 | 0.04 | 0.04 | 99 | 1016.9 |
| 20260905010030 | 77 | 104 | 0.0 | 0.0 | 0.00 | 0.04 | 0.04 | 99 | 1016.9 |
| 20260905005525 | 77 | 82 | 2.0 | 2.0 | 0.00 | 0.04 | 0.04 | 99 | 1016.9 |
| 20260905005020 | 77 | 119 | 0.0 | 0.0 | 0.00 | 0.04 | 0.04 | 99 | 1016.9 |
| 20260905004515 | 77 | 172 | 0.0 | 0.0 | 0.00 | 0.04 | 0.04 | 99 | 1016.5 |
| 20260905004010 | 77 | 199 | 0.0 | 0.0 | 0.00 | 0.04 | 0.04 | 99 | 1016.5 |
| 20260905003506 | 77 | 191 | 0.0 | 0.0 | 0.00 | 0.04 | 0.04 | 99 | 1016.9 |
| 20260905003001 | 77 | 78 | 0.0 | 0.0 | 0.00 | 0.04 | 0.04 | 99 | 1016.9 |
| 20260905002455 | 77 | 78 | 0.0 | 0.0 | 0.00 | 0.04 | 0.04 | 99 | 1016.5 |
| 20260905001950 | 77 | 78 | 0.0 | 0.0 | 0.00 | 0.04 | 0.04 | 99 | 1016.9 |
| 20260905001444 | 77 | 80 | 0.0 | 0.0 | 0.00 | 0.04 | 0.04 | 99 | 1016.9 |
| 20260905000939 | 77 | 80 | 0.0 | 0.0 | 0.00 | 0.04 | 0.04 | 99 | 1016.9 |
| 20260905000435 | 77 | 80 | 0.0 | 0.0 | 0.00 | 0.04 | 0.04 | 99 | 1016.9 |
| 20260904235930 | 77 | 80 | 0.0 | 0.0 | 0.00 | 0.04 | 0.04 | 99 | 1016.9 |
| 20260904235426 | 77 | 80 | 0.0 | 0.0 | 0.00 | 0.04 | 0.04 | 99 | 1016.9 |
| 20260904234920 | 77 | 68 | 0.0 | 0.0 | 0.00 | 0.04 | 0.04 | 99 | 1016.9 |
| 20260904234420 | 77 | 83 | 0.0 | 1.0 | 0.00 | 0.04 | 0.04 | 99 | 1016.9 |
| 20260904233916 | 77 | 60 | 2.0 | 2.0 | 0.00 | 0.04 | 0.04 | 99 | 1017.2 |
| 20260904233411 | 77 | 53 | 1.0 | 1.0 | 0.00 | 0.04 | 0.04 | 99 | 1016.9 |
| 20260904232908 | 77 | 49 | 1.0 | 2.0 | 0.00 | 0.04 | 0.04 | 99 | 1017.2 |
| 20260904232404 | 77 | 61 | 3.0 | 3.0 | 0.00 | 0.04 | 0.04 | 99 | 1017.2 |
| 20260904231900 | 77 | 37 | 0.0 | 0.0 | 0.00 | 0.04 | 0.04 | 99 | 1016.9 |
| 20260904231354 | 77 | 109 | 0.0 | 1.0 | 0.00 | 0.04 | 0.04 | 99 | 1016.9 |
| 20260904230850 | 76 | 132 | 0.0 | 0.0 | 0.00 | 0.04 | 0.04 | 99 | 1016.9 |
| 20260904230348 | 76 | 54 | 0.0 | 1.0 | 0.00 | 0.04 | 0.04 | 99 | 1016.9 |
| 20260904225844 | 77 | 29 | 1.0 | 2.0 | 0.00 | 0.04 | 0.04 | 99 | 1017.2 |
| 20260904225341 | 77 | 58 | 2.0 | 2.0 | 0.00 | 0.04 | 0.04 | 99 | 1017.2 |
| 20260904224836 | 77 | 51 | 2.0 | 2.0 | 0.00 | 0.04 | 0.04 | 99 | 1017.2 |
| 20260904224331 | 77 | 72 | 1.0 | 2.0 | 0.07 | 0.04 | 0.04 | 99 | 1017.2 |
| 20260904223831 | 77 | 82 | 1.0 | 1.0 | 0.19 | 0.04 | 0.04 | 98 | 1017.2 |
| 20260904223325 | 78 | 169 | 1.0 | 2.0 | 0.12 | 0.03 | 0.03 | 98 | 1017.5 |
| 20260904222822 | 79 | 81 | 3.0 | 3.0 | 0.00 | 0.01 | 0.01 | 98 | 1017.2 |
| 20260904222321 | 79 | 172 | 0.0 | 0.0 | 0.00 | 0.01 | 0.01 | 98 | 1017.2 |
| 20260904221821 | 79 | 107 | 2.0 | 2.0 | 0.00 | 0.01 | 0.01 | 98 | 1016.9 |
| 20260904221316 | 79 | 112 | 3.0 | 3.0 | 0.05 | 0.01 | 0.01 | 98 | 1016.2 |
| 20260904220811 | 80 | 87 | 2.0 | 3.0 | 0.05 | 0.01 | 0.01 | 96 | 1016.2 |
| 20260904220311 | 80 | 86 | 2.0 | 2.0 | 0.00 | 0.00 | 0.00 | 94 | 1016.2 |
| 20260904215806 | 81 | 46 | 2.0 | 2.0 | 0.00 | 0.00 | 0.00 | 92 | 1016.2 |
| 20260904215301 | 81 | 48 | 5.0 | 6.0 | 0.00 | 0.00 | 0.00 | 90 | 1015.5 |
| 20260904214757 | 82 | 36 | 3.0 | 3.0 | 0.00 | 0.00 | 0.00 | 88 | 1015.5 |
| 20260904214252 | 83 | 40 | 5.0 | 6.0 | 0.00 | 0.00 | 0.00 | 91 | 1015.8 |
| 20260904213750 | 84 | 57 | 1.0 | 2.0 | 0.00 | 0.00 | 0.00 | 89 | 1015.8 |
| 20260904213246 | 84 | 25 | 2.0 | 2.0 | 0.00 | 0.00 | 0.00 | 87 | 1015.5 |
| 20260904212742 | 84 | 169 | 7.0 | 8.0 | 0.00 | 0.00 | 0.00 | 85 | 1015.8 |
| 20260904212242 | 84 | 232 | 8.0 | 10.0 | 0.00 | 0.00 | 0.00 | 85 | 1015.2 |
| 20260904211737 | 83 | 214 | 2.0 | 2.0 | 0.00 | 0.00 | 0.00 | 87 | 1015.2 |
| 20260904211231 | 82 | 249 | 3.0 | 3.0 | 0.00 | 0.00 | 0.00 | 92 | 1015.2 |
| 20260904210727 | 82 | 237 | 3.0 | 5.0 | 0.00 | 0.00 | 0.00 | 94 | 1015.5 |
| 20260904210221 | 83 | 263 | 1.0 | 2.0 | 0.00 | 0.00 | 0.00 | 92 | 1015.5 |
| 20260904205718 | 84 | 250 | 5.0 | 7.0 | 0.00 | 0.00 | 0.00 | 88 | 1015.5 |
| 20260904205214 | 86 | 255 | 4.0 | 5.0 | 0.00 | 0.00 | 0.00 | 86 | 1015.5 |
| 20260904204710 | 87 | 227 | 6.0 | 7.0 | 0.00 | 0.00 | 0.00 | 79 | 1015.5 |
| 20260904204206 | 92 | 208 | 6.0 | 8.0 | 0.00 | 0.00 | 0.00 | 72 | 1015.5 |
| 20260904203702 | 92 | 186 | 4.0 | 5.0 | 0.00 | 0.00 | 0.00 | 67 | 1015.2 |
| 20260904203158 | 92 | 175 | 3.0 | 6.0 | 0.00 | 0.00 | 0.00 | 68 | 1015.2 |
| 20260904202653 | 93 | 89 | 4.0 | 6.0 | 0.00 | 0.00 | 0.00 | 67 | 1014.8 |
| 20260904202150 | 93 | 113 | 2.0 | 2.0 | 0.00 | 0.00 | 0.00 | 66 | 1014.8 |
| 20260904201644 | 92 | 178 | 2.0 | 3.0 | 0.00 | 0.00 | 0.00 | 68 | 1015.2 |
| 20260904201139 | 92 | 181 | 2.0 | 2.0 | 0.00 | 0.00 | 0.00 | 69 | 1015.2 |
| 20260904200638 | 92 | 185 | 3.0 | 3.0 | 0.00 | 0.00 | 0.00 | 69 | 1015.2 |
| 20260904200133 | 92 | 148 | 6.0 | 8.0 | 0.00 | 0.00 | 0.00 | 70 | 1015.2 |
| 20260904195632 | 93 | 187 | 3.0 | 6.0 | 0.00 | 0.00 | 0.00 | 69 | 1015.2 |
| 20260904195132 | 93 | 165 | 1.0 | 1.0 | 0.00 | 0.00 | 0.00 | 68 | 1015.2 |
| 20260904194625 | 93 | 59 | 3.0 | 3.0 | 0.00 | 0.00 | 0.00 | 70 | 1015.2 |
| 20260904194120 | 94 | 150 | 1.0 | 1.0 | 0.00 | 0.00 | 0.00 | 68 | 1015.5 |
| 20260904193615 | 94 | 132 | 3.0 | 5.0 | 0.00 | 0.00 | 0.00 | 69 | 1015.2 |
| 20260904193112 | 93 | 168 | 5.0 | 6.0 | 0.00 | 0.00 | 0.00 | 69 | 1015.5 |
| 20260904192611 | 93 | 185 | 3.0 | 5.0 | 0.00 | 0.00 | 0.00 | 69 | 1015.5 |
| 20260904192107 | 94 | 191 | 8.0 | 9.0 | 0.00 | 0.00 | 0.00 | 68 | 1016.2 |
| 20260904191604 | 94 | 124 | 4.0 | 7.0 | 0.00 | 0.00 | 0.00 | 68 | 1015.8 |
| 20260904191100 | 93 | 107 | 2.0 | 3.0 | 0.00 | 0.00 | 0.00 | 69 | 1016.2 |
| 20260904190555 | 93 | 169 | 2.0 | 3.0 | 0.00 | 0.00 | 0.00 | 69 | 1015.8 |
| 20260904190051 | 92 | 220 | 1.0 | 2.0 | 0.00 | 0.00 | 0.00 | 71 | 1015.8 |
| 20260904185548 | 91 | 179 | 2.0 | 2.0 | 0.00 | 0.00 | 0.00 | 71 | 1016.2 |
| 20260904185042 | 91 | 195 | 4.0 | 5.0 | 0.00 | 0.00 | 0.00 | 71 | 1016.2 |
| 20260904184536 | 92 | 105 | 1.0 | 2.0 | 0.00 | 0.00 | 0.00 | 71 | 1016.2 |
| 20260904184032 | 93 | 204 | 3.0 | 3.0 | 0.00 | 0.00 | 0.00 | 69 | 1016.2 |
| 20260904183527 | 94 | 179 | 4.0 | 6.0 | 0.00 | 0.00 | 0.00 | 68 | 1016.9 |
| 20260904183022 | 93 | 176 | 2.0 | 2.0 | 0.00 | 0.00 | 0.00 | 72 | 1016.5 |
| 20260904182517 | 92 | 190 | 7.0 | 8.0 | 0.00 | 0.00 | 0.00 | 71 | 1016.9 |
| 20260904182011 | 93 | 134 | 1.0 | 1.0 | 0.00 | 0.00 | 0.00 | 70 | 1016.9 |
| 20260904181508 | 92 | 166 | 1.0 | 2.0 | 0.00 | 0.00 | 0.00 | 72 | 1016.9 |
| 20260904181002 | 92 | 203 | 3.0 | 5.0 | 0.00 | 0.00 | 0.00 | 71 | 1016.9 |
| 20260904180501 | 93 | 183 | 1.0 | 3.0 | 0.00 | 0.00 | 0.00 | 71 | 1016.9 |
| 20260904175956 | 93 | 199 | 1.0 | 2.0 | 0.00 | 0.00 | 0.00 | 69 | 1017.2 |
| 20260904175455 | 93 | 160 | 1.0 | 2.0 | 0.00 | 0.00 | 0.00 | 71 | 1017.2 |
| 20260904174950 | 92 | 170 | 2.0 | 3.0 | 0.00 | 0.00 | 0.00 | 72 | 1017.2 |